Weather History for KBNO - April, 2013

Change the Weather History Date:

Saturday, April 27, 2013

  Actual Average Record
Temperature  
Mean Temperature 56 °F 46 °F  
Max Temperature 77 °F 60 °F 84 °F (1987)
Min Temperature 34 °F 31 °F 18 °F (1955)
Degree Days  
Heating Degree Days 9 19  
Month to date heating degree days 592 598  
Since 1 July heating degree days 6781 6983  
Cooling Degree Days 0 0  
Month to date cooling degree days 0 0  
Year to date cooling degree days 0 0  
Growing Degree Days 6 (Base 50)    
Moisture  
Dew Point 26 °F    
Average Humidity 38    
Maximum Humidity 64    
Minimum Humidity 12    
Precipitation  
Precipitation 0.00 in 0.03 in 0.44 in (1951)
Month to date precipitation 0.39 0.84  
Year to date precipitation 1.31 4.14  
Sea Level Pressure  
Sea Level Pressure 30.17 in    
Wind  
Wind Speed 9 mph (West)    
Max Wind Speed 21 mph    
Max Gust Speed 26 mph    
Visibility 10 miles    
Events      
T = Trace of Precipitation, MM = Missing Value Source: NWS Daily Summary

Daily Weather History Graph

Daily Weather History Graph

Search for Another Location

Airport or City:

Trip Planner

Search our weather history database for the weather conditions in past years. The results will help you decide how hot, cold, wet, or windy it might be!

Date:

Astronomy

Apr. 27, 2013 Rise Set
Actual Time 5:53 AM PDT 7:53 PM PDT
Civil Twilight 5:22 AM PDT 8:25 PM PDT
Nautical Twilight 4:44 AM PDT 9:03 PM PDT
Astronomical Twilight 4:03 AM PDT 9:45 PM PDT
Moon 10:31 PM PDT (4/27) 7:13 AM PDT (4/27)
Length of Visible Light 15h 02m
Length of Day
14h 00m
Waning Gibbous, 95% of the Moon is Illuminated
Apr 27
Waning Gibbous
May 2
Last Quarter
May 9
New
May 17
First Quarter
May 24
Full

Hourly Weather History & Observations

Time (PDT) Temp. Windchill Dew Point Humidity Pressure Visibility Wind Dir Wind Speed Gust Speed Precip Events Conditions
12:53 AM 45.0 °F 39.3 °F 30.0 °F 56% 30.23 in 10.0 mi West 11.5 mph - N/A   Clear
1:53 AM 44.1 °F 40.1 °F 28.0 °F 53% 30.23 in 10.0 mi NW 6.9 mph - N/A   Clear
2:53 AM 44.1 °F 39.5 °F 26.1 °F 49% 30.22 in 10.0 mi WNW 8.1 mph - N/A   Clear
3:53 AM 41.0 °F 34.3 °F 26.1 °F 55% 30.22 in 10.0 mi West 11.5 mph - N/A   Clear
4:53 AM 41.0 °F 35.2 °F 26.1 °F 55% 30.22 in 10.0 mi West 9.2 mph - N/A   Clear
5:53 AM 37.0 °F - 26.1 °F 65% 30.24 in 10.0 mi Calm Calm - N/A   Clear
6:53 AM 37.9 °F - 26.1 °F 62% 30.26 in 10.0 mi Calm Calm - N/A   Clear
7:53 AM 46.0 °F - 28.9 °F 51% 30.27 in 10.0 mi Calm Calm - N/A   Clear
8:53 AM 55.0 °F - 32.0 °F 42% 30.27 in 10.0 mi Calm Calm - N/A   Clear
9:53 AM 60.1 °F - 32.0 °F 35% 30.25 in 10.0 mi Variable 3.5 mph - N/A   Clear
10:53 AM 64.9 °F - 30.9 °F 28% 30.23 in 10.0 mi South 6.9 mph - N/A   Clear
11:53 AM 70.0 °F - 19.9 °F 15% 30.21 in 10.0 mi WSW 9.2 mph - N/A   Clear
12:53 PM 72.0 °F - 25.0 °F 17% 30.19 in 10.0 mi WSW 15.0 mph 19.6 mph N/A   Clear
1:53 PM 75.9 °F - 19.0 °F 12% 30.15 in 10.0 mi WSW 16.1 mph - N/A   Clear
2:53 PM 75.0 °F - 19.9 °F 13% 30.13 in 10.0 mi SW 11.5 mph 24.2 mph N/A   Clear
3:53 PM 75.0 °F - 21.0 °F 13% 30.10 in 10.0 mi West 10.4 mph - N/A   Clear
4:53 PM 75.0 °F - 21.9 °F 14% 30.08 in 10.0 mi WNW 15.0 mph 24.2 mph N/A   Clear
5:53 PM 75.0 °F - 24.1 °F 15% 30.08 in 10.0 mi West 15.0 mph - N/A   Clear
6:53 PM 69.1 °F - 26.1 °F 20% 30.08 in 10.0 mi West 15.0 mph 24.2 mph N/A   Clear
7:53 PM 63.0 °F - 25.0 °F 24% 30.09 in 10.0 mi WNW 15.0 mph - N/A   Clear
8:53 PM 57.9 °F - 26.1 °F 30% 30.11 in 10.0 mi WNW 8.1 mph - N/A   Clear
9:53 PM 55.9 °F - 25.0 °F 30% 30.11 in 10.0 mi WNW 11.5 mph - N/A   Clear
10:53 PM 50.0 °F - 25.0 °F 38% 30.10 in 10.0 mi West 8.1 mph - N/A   Clear
11:53 PM 54.0 °F - 28.0 °F 37% 30.09 in 10.0 mi West 9.2 mph - N/A   Clear